Back to catalog

METEOR 2-20 DEB

AlivePO
NORAD 59997·DEBRIS·🇷🇺 Russia

Launched Sep 28, 1990 from Plesetsk Cosmodrome

Loading…

Next Passes (next 24 hours)

TLE

FreshSource: Space-Track

Epoch: Sep 14, 2026, 01:39 UTC

1 59997U 90086G   26257.06884631  .00001245  00000-0  98203-3 0  9997
2 59997  82.5195 121.3991 0020512  85.3910 274.9596 13.90829619147465

Track METEOR 2-20 DEB in real time with AllMySat

Download on the App Store